Change the Weather History Date:

Saturday, November 16, 2013

  Actual Average Record
Temperature  
Mean Temperature 53 °F -  
Max Temperature 60 °F 65 °F 80 °F (1981)
Min Temperature 46 °F 40 °F 26 °F (1964)
Degree Days  
Heating Degree Days 12    
Growing Degree Days 3 (Base 50)    
Moisture  
Dew Point 33 °F    
Average Humidity 47    
Maximum Humidity 66    
Minimum Humidity 29    
Precipitation  
Precipitation 0.00 in - - ()
Sea Level Pressure  
Sea Level Pressure 29.78 in    
Wind  
Wind Speed 17 mph (WSW)    
Max Wind Speed 37 mph    
Max Gust Speed 47 mph    
Visibility 10 miles    
Events      
Averages and records for this station are not official NWS values.
T = Trace of Precipitation, MM = Missing Value Source: NWS Daily Summary

Daily Weather History Graph

Daily Weather History Graph

Search for Another Location

Airport or City:

Trip Planner

Search our weather history database for the weather conditions in past years. The results will help you decide how hot, cold, wet, or windy it might be!

Date:

Astronomy

Nov. 16, 2013 Rise Set
Actual Time 6:28 AM PST 4:46 PM PST
Civil Twilight 6:01 AM PST 5:13 PM PST
Nautical Twilight 5:30 AM PST 5:43 PM PST
Astronomical Twilight 5:00 AM PST 6:13 PM PST
Moon 4:23 PM PST (11/16) 5:31 AM PST (11/16)
Length of Visible Light 11h 11m
Length of Day
10h 17m
Waxing Gibbous, 99% of the Moon is Illuminated
Nov 16
Waxing Gibbous
Nov 17
Full
Nov 25
Last Quarter
Dec 2
New
Dec 9
First Quarter

Hourly Weather History & Observations

Time (PST) Temp. Windchill Dew Point Humidity Pressure Visibility Wind Dir Wind Speed Gust Speed Precip Events Conditions
12:15 AM 50.0 °F - 35.6 °F 58% 29.71 in 10.0 mi NW 19.6 mph 27.6 mph N/A   Clear
12:35 AM 50.0 °F - 35.6 °F 58% 29.72 in 10.0 mi NW 13.8 mph 23.0 mph N/A   Clear
12:55 AM 48.2 °F - 35.6 °F 62% 29.73 in 10.0 mi SSW 4.6 mph - N/A   Clear
1:15 AM 50.0 °F - 35.6 °F 58% 29.71 in 10.0 mi WNW 11.5 mph 25.3 mph N/A   Clear
1:35 AM 50.0 °F - 35.6 °F 58% 29.72 in 10.0 mi WNW 18.4 mph 21.9 mph N/A   Clear
1:55 AM 48.2 °F - 35.6 °F 62% 29.72 in 10.0 mi West 9.2 mph - N/A   Clear
2:15 AM 46.4 °F 41.1 °F 35.6 °F 66% 29.73 in 10.0 mi West 11.5 mph - N/A   Clear
2:35 AM 50.0 °F - 35.6 °F 58% 29.74 in 10.0 mi West 16.1 mph 26.5 mph N/A   Clear
2:55 AM 50.0 °F - 35.6 °F 58% 29.73 in 10.0 mi West 20.7 mph 35.7 mph N/A   Clear
3:15 AM 48.2 °F - 35.6 °F 62% 29.72 in 10.0 mi West 20.7 mph 26.5 mph N/A   Clear
3:35 AM 48.2 °F - 35.6 °F 62% 29.71 in 10.0 mi West 26.5 mph 31.1 mph N/A   Clear
3:55 AM 48.2 °F - 35.6 °F 62% 29.71 in 10.0 mi WSW 16.1 mph 31.1 mph N/A   Clear
4:15 AM 46.4 °F 37.4 °F 35.6 °F 66% 29.71 in 10.0 mi SW 28.8 mph 34.5 mph N/A   Clear
4:35 AM 48.2 °F - 35.6 °F 62% 29.71 in 10.0 mi SW 26.5 mph 33.4 mph N/A   Clear
4:55 AM 46.4 °F 38.3 °F 35.6 °F 66% 29.71 in 10.0 mi SW 23.0 mph 35.7 mph N/A   Clear
5:15 AM 50.0 °F - 35.6 °F 58% 29.71 in 10.0 mi West 26.5 mph 32.2 mph N/A   Clear
5:35 AM 48.2 °F - 35.6 °F 62% 29.72 in 10.0 mi WSW 27.6 mph 34.5 mph N/A   Clear
5:55 AM 48.2 °F - 35.6 °F 62% 29.74 in 10.0 mi SW 25.3 mph 31.1 mph N/A   Clear
6:15 AM 48.2 °F - 35.6 °F 62% 29.74 in 10.0 mi SW 26.5 mph 34.5 mph N/A   Clear
6:35 AM 48.2 °F - 35.6 °F 62% 29.76 in 10.0 mi SW 15.0 mph - N/A   Clear
6:55 AM 48.2 °F - 35.6 °F 62% 29.77 in 10.0 mi SSW 12.7 mph - N/A   Clear
7:15 AM 50.0 °F - 35.6 °F 58% 29.79 in 10.0 mi SW 16.1 mph 19.6 mph N/A   Clear
7:35 AM 50.0 °F - 35.6 °F 58% 29.79 in 10.0 mi SW 12.7 mph 25.3 mph N/A   Clear
7:55 AM 50.0 °F - 33.8 °F 54% 29.80 in 10.0 mi WSW 13.8 mph 23.0 mph N/A   Clear
8:15 AM 50.0 °F - 33.8 °F 54% 29.78 in 10.0 mi WSW 26.5 mph 35.7 mph N/A   Clear
8:35 AM 50.0 °F - 33.8 °F 54% 29.81 in 10.0 mi SSW 5.8 mph 29.9 mph N/A   Clear
8:55 AM 51.8 °F - 33.8 °F 50% 29.81 in 10.0 mi SSW 3.5 mph - N/A   Clear
9:15 AM 53.6 °F - 33.8 °F 47% 29.80 in 10.0 mi SW 8.1 mph - N/A   Clear
9:35 AM 55.4 °F - 32.0 °F 41% 29.81 in 10.0 mi WSW 13.8 mph 28.8 mph N/A   Clear
9:55 AM 55.4 °F - 32.0 °F 41% 29.82 in 10.0 mi WSW 11.5 mph 23.0 mph N/A   Clear
10:15 AM 57.2 °F - 32.0 °F 38% 29.81 in 10.0 mi WSW 23.0 mph 32.2 mph N/A   Clear
10:35 AM 57.2 °F - 32.0 °F 38% 29.79 in 10.0 mi West 18.4 mph 31.1 mph N/A   Clear
10:55 AM 59.0 °F - 32.0 °F 36% 29.80 in 10.0 mi WSW 18.4 mph 28.8 mph N/A   Clear
11:15 AM 59.0 °F - 32.0 °F 36% 29.80 in 10.0 mi West 18.4 mph 29.9 mph N/A   Clear
11:35 AM 59.0 °F - 32.0 °F 36% 29.79 in 10.0 mi WSW 17.3 mph 21.9 mph N/A   Clear
11:55 AM 59.0 °F - 32.0 °F 36% 29.78 in 10.0 mi WSW 17.3 mph 24.2 mph N/A   Clear
12:15 PM 59.0 °F - 32.0 °F 36% 29.77 in 10.0 mi West 15.0 mph 26.5 mph N/A   Clear
12:35 PM 60.8 °F - 32.0 °F 34% 29.77 in 10.0 mi WSW 18.4 mph 24.2 mph N/A   Clear
12:55 PM 60.8 °F - 32.0 °F 34% 29.76 in 10.0 mi WSW 16.1 mph 19.6 mph N/A   Clear
1:15 PM 60.8 °F - 32.0 °F 34% 29.77 in 10.0 mi West 17.3 mph 28.8 mph N/A   Clear
1:35 PM 60.8 °F - 32.0 °F 34% 29.77 in 10.0 mi WSW 19.6 mph 24.2 mph N/A   Clear
1:55 PM 60.8 °F - 30.2 °F 31% 29.77 in 10.0 mi WSW 17.3 mph 28.8 mph N/A   Clear
2:15 PM 60.8 °F - 28.4 °F 29% 29.77 in 10.0 mi West 21.9 mph 29.9 mph N/A   Clear
2:35 PM 60.8 °F - 30.2 °F 31% 29.77 in 10.0 mi West 17.3 mph 25.3 mph N/A   Clear
2:55 PM 59.0 °F - 30.2 °F 34% 29.77 in 10.0 mi West 21.9 mph - N/A   Clear
3:15 PM 59.0 °F - 30.2 °F 34% 29.78 in 10.0 mi WSW 15.0 mph 21.9 mph N/A   Clear
3:35 PM 59.0 °F - 28.4 °F 31% 29.78 in 10.0 mi West 15.0 mph 27.6 mph N/A   Clear
3:55 PM 57.2 °F - 26.6 °F 31% 29.77 in 10.0 mi West 18.4 mph 23.0 mph N/A   Clear
4:15 PM 57.2 °F - 28.4 °F 33% 29.77 in 10.0 mi WSW 20.7 mph 29.9 mph N/A   Clear
4:35 PM 57.2 °F - 28.4 °F 33% 29.78 in 10.0 mi WSW 10.4 mph 19.6 mph N/A   Clear
4:55 PM 55.4 °F - 28.4 °F 36% 29.78 in 10.0 mi SW 10.4 mph 16.1 mph N/A   Clear
5:15 PM 55.4 °F - 30.2 °F 38% 29.79 in 10.0 mi SW 11.5 mph 20.7 mph N/A   Clear
5:35 PM 55.4 °F - 30.2 °F 38% 29.80 in 10.0 mi SW 15.0 mph 20.7 mph N/A   Clear
5:55 PM 53.6 °F - 32.0 °F 44% 29.81 in 10.0 mi WSW 16.1 mph - N/A   Clear
6:15 PM 53.6 °F - 32.0 °F 44% 29.81 in 10.0 mi WSW 20.7 mph - N/A   Clear
6:35 PM 53.6 °F - 32.0 °F 44% 29.81 in 10.0 mi WSW 24.2 mph 33.4 mph N/A   Clear
6:55 PM 53.6 °F - 32.0 °F 44% 29.81 in 10.0 mi WSW 28.8 mph 35.7 mph N/A   Clear
7:15 PM 53.6 °F - 32.0 °F 44% 29.79 in 10.0 mi West 36.8 mph 42.6 mph N/A   Clear
7:35 PM 53.6 °F - 32.0 °F 44% 29.79 in 9.0 mi West 34.5 mph 47.2 mph N/A   Clear
7:55 PM 53.6 °F - 32.0 °F 44% 29.82 in 10.0 mi SW 15.0 mph 38.0 mph N/A   Clear
8:15 PM 53.6 °F - 32.0 °F 44% 29.84 in 10.0 mi South 13.8 mph 21.9 mph N/A   Clear
8:35 PM 51.8 °F - 32.0 °F 47% 29.85 in 10.0 mi South 10.4 mph 19.6 mph N/A   Clear
8:55 PM 51.8 °F - 32.0 °F 47% 29.85 in 10.0 mi SSW 13.8 mph - N/A   Clear
9:15 PM 53.6 °F - 32.0 °F 44% 29.86 in 10.0 mi SW 20.7 mph 28.8 mph N/A   Clear
9:35 PM 51.8 °F - 32.0 °F 47% 29.85 in 10.0 mi SW 20.7 mph 28.8 mph N/A   Clear
9:55 PM 51.8 °F - 32.0 °F 47% 29.86 in 10.0 mi West 19.6 mph 33.4 mph N/A   Clear
10:15 PM 51.8 °F - 32.0 °F 47% 29.86 in 10.0 mi WSW 20.7 mph 24.2 mph N/A   Clear
10:35 PM 51.8 °F - 32.0 °F 47% 29.86 in 10.0 mi WSW 17.3 mph 26.5 mph N/A   Clear
10:55 PM 51.8 °F - 32.0 °F 47% 29.88 in 10.0 mi WSW 15.0 mph 26.5 mph N/A   Clear
11:15 PM 51.8 °F - 32.0 °F 47% 29.88 in 10.0 mi West 20.7 mph 27.6 mph N/A   Clear
11:35 PM 50.0 °F - 32.0 °F 50% 29.89 in 10.0 mi West 17.3 mph 20.7 mph N/A   Clear
11:55 PM 50.0 °F - 30.2 °F 47% 29.88 in 10.0 mi WNW 16.1 mph - N/A   Clear